Year,Month,Day,Hour,Minute,Value (Times are PST for insolation in W/m^2)
2012,08,03,00,00,0.00
2012,08,03,00,01,0.00
2012,08,03,00,02,0.00
2012,08,03,00,03,0.00
2012,08,03,00,04,0.00
2012,08,03,00,05,0.00
2012,08,03,00,06,0.00
2012,08,03,00,07,0.00
2012,08,03,00,08,0.00
2012,08,03,00,09,0.00
2012,08,03,00,10,0.00
2012,08,03,00,11,0.00
2012,08,03,00,12,0.00
2012,08,03,00,13,0.00
2012,08,03,00,14,0.00
2012,08,03,00,15,0.00
2012,08,03,00,16,0.00
2012,08,03,00,17,0.00
2012,08,03,00,18,0.00
2012,08,03,00,19,0.00
2012,08,03,00,20,0.00
2012,08,03,00,21,0.00
2012,08,03,00,22,0.00
2012,08,03,00,23,0.00
2012,08,03,00,24,0.00
2012,08,03,00,25,0.00
2012,08,03,00,26,0.00
2012,08,03,00,27,0.00
2012,08,03,00,28,0.00
2012,08,03,00,29,0.00
2012,08,03,00,30,0.00
2012,08,03,00,31,0.00
2012,08,03,00,32,0.00
2012,08,03,00,33,0.00
2012,08,03,00,34,0.00
2012,08,03,00,35,0.00
2012,08,03,00,36,0.00
2012,08,03,00,37,0.00
2012,08,03,00,38,0.00
2012,08,03,00,39,0.00
2012,08,03,00,40,0.00
2012,08,03,00,41,0.00
2012,08,03,00,42,0.00
2012,08,03,00,43,0.00
2012,08,03,00,44,0.00
2012,08,03,00,45,0.00
2012,08,03,00,46,0.00
2012,08,03,00,47,0.00
2012,08,03,00,48,0.00
2012,08,03,00,49,0.00
2012,08,03,00,50,0.00
2012,08,03,00,51,0.00
2012,08,03,00,52,0.00
2012,08,03,00,53,0.00
2012,08,03,00,54,0.00
2012,08,03,00,55,0.00
2012,08,03,00,56,0.00
2012,08,03,00,57,0.00
2012,08,03,00,58,0.00
2012,08,03,00,59,0.00
2012,08,03,01,00,0.00
2012,08,03,01,01,0.00
2012,08,03,01,02,0.00
2012,08,03,01,03,0.00
2012,08,03,01,04,0.00
2012,08,03,01,05,0.00
2012,08,03,01,06,0.00
2012,08,03,01,07,0.00
2012,08,03,01,08,0.00
2012,08,03,01,09,0.00
2012,08,03,01,10,0.00
2012,08,03,01,11,0.00
2012,08,03,01,12,0.00
2012,08,03,01,13,0.00
2012,08,03,01,14,0.00
2012,08,03,01,15,0.00
2012,08,03,01,16,0.00
2012,08,03,01,17,0.00
2012,08,03,01,18,0.00
2012,08,03,01,19,0.00
2012,08,03,01,20,0.00
2012,08,03,01,21,0.00
2012,08,03,01,22,0.00
2012,08,03,01,23,0.00
2012,08,03,01,24,0.00
2012,08,03,01,25,0.00
2012,08,03,01,26,0.00
2012,08,03,01,27,0.00
2012,08,03,01,28,0.00
2012,08,03,01,29,0.00
2012,08,03,01,30,0.00
2012,08,03,01,31,0.00
2012,08,03,01,32,0.00
2012,08,03,01,33,0.00
2012,08,03,01,34,0.00
2012,08,03,01,35,0.00
2012,08,03,01,36,0.00
2012,08,03,01,37,0.00
2012,08,03,01,38,0.00
2012,08,03,01,39,0.00
2012,08,03,01,40,0.00
2012,08,03,01,41,0.00
2012,08,03,01,42,0.00
2012,08,03,01,43,0.00
2012,08,03,01,44,0.00
2012,08,03,01,45,0.00
2012,08,03,01,46,0.00
2012,08,03,01,47,0.00
2012,08,03,01,48,0.00
2012,08,03,01,49,0.00
2012,08,03,01,50,0.00
2012,08,03,01,51,0.00
2012,08,03,01,52,0.00
2012,08,03,01,53,0.00
2012,08,03,01,54,0.00
2012,08,03,01,55,0.00
2012,08,03,01,56,0.00
2012,08,03,01,57,0.00
2012,08,03,01,58,0.00
2012,08,03,01,59,0.00
2012,08,03,02,00,0.00
2012,08,03,02,01,0.00
2012,08,03,02,02,0.00
2012,08,03,02,03,0.00
2012,08,03,02,04,0.00
2012,08,03,02,05,0.00
2012,08,03,02,06,0.00
2012,08,03,02,07,0.00
2012,08,03,02,08,0.00
2012,08,03,02,09,0.00
2012,08,03,02,10,0.00
2012,08,03,02,11,0.00
2012,08,03,02,12,0.00
2012,08,03,02,13,0.00
2012,08,03,02,14,0.00
2012,08,03,02,15,0.00
2012,08,03,02,16,0.00
2012,08,03,02,17,0.00
2012,08,03,02,18,0.00
2012,08,03,02,19,0.00
2012,08,03,02,20,0.00
2012,08,03,02,21,0.00
2012,08,03,02,22,0.00
2012,08,03,02,23,0.00
2012,08,03,02,24,0.00
2012,08,03,02,25,0.00
2012,08,03,02,26,0.00
2012,08,03,02,27,0.00
2012,08,03,02,28,0.00
2012,08,03,02,29,0.00
2012,08,03,02,30,0.00
2012,08,03,02,31,0.00
2012,08,03,02,32,0.00
2012,08,03,02,33,0.00
2012,08,03,02,34,0.00
2012,08,03,02,35,0.00
2012,08,03,02,36,0.00
2012,08,03,02,37,0.00
2012,08,03,02,38,0.00
2012,08,03,02,39,0.00
2012,08,03,02,40,0.00
2012,08,03,02,41,0.00
2012,08,03,02,42,0.00
2012,08,03,02,43,0.00
2012,08,03,02,44,0.00
2012,08,03,02,45,0.00
2012,08,03,02,46,0.00
2012,08,03,02,47,0.00
2012,08,03,02,48,0.00
2012,08,03,02,49,0.00
2012,08,03,02,50,0.00
2012,08,03,02,51,0.00
2012,08,03,02,52,0.00
2012,08,03,02,53,0.00
2012,08,03,02,54,0.00
2012,08,03,02,55,0.00
2012,08,03,02,56,0.00
2012,08,03,02,57,0.00
2012,08,03,02,58,0.00
2012,08,03,02,59,0.00
2012,08,03,03,00,0.00
2012,08,03,03,01,0.00
2012,08,03,03,02,0.00
2012,08,03,03,03,0.00
2012,08,03,03,04,0.00
2012,08,03,03,05,0.00
2012,08,03,03,06,0.00
2012,08,03,03,07,0.00
2012,08,03,03,08,0.00
2012,08,03,03,09,0.00
2012,08,03,03,10,0.00
2012,08,03,03,11,0.00
2012,08,03,03,12,0.00
2012,08,03,03,13,0.00
2012,08,03,03,14,0.00
2012,08,03,03,15,0.00
2012,08,03,03,16,0.00
2012,08,03,03,17,0.00
2012,08,03,03,18,0.00
2012,08,03,03,19,0.00
2012,08,03,03,20,0.00
2012,08,03,03,21,0.00
2012,08,03,03,22,0.00
2012,08,03,03,23,0.00
2012,08,03,03,24,0.00
2012,08,03,03,25,0.00
2012,08,03,03,26,0.00
2012,08,03,03,27,0.00
2012,08,03,03,28,0.00
2012,08,03,03,29,0.00
2012,08,03,03,30,0.00
2012,08,03,03,31,0.00
2012,08,03,03,32,0.00
2012,08,03,03,33,0.00
2012,08,03,03,34,0.00
2012,08,03,03,35,0.00
2012,08,03,03,36,0.00
2012,08,03,03,37,0.00
2012,08,03,03,38,0.00
2012,08,03,03,39,0.00
2012,08,03,03,40,0.00
2012,08,03,03,41,0.00
2012,08,03,03,42,0.00
2012,08,03,03,43,0.00
2012,08,03,03,44,0.00
2012,08,03,03,45,0.00
2012,08,03,03,46,0.00
2012,08,03,03,47,0.00
2012,08,03,03,48,0.00
2012,08,03,03,49,0.00
2012,08,03,03,50,0.00
2012,08,03,03,51,0.00
2012,08,03,03,52,0.00
2012,08,03,03,53,0.00
2012,08,03,03,54,0.00
2012,08,03,03,55,0.00
2012,08,03,03,56,0.00
2012,08,03,03,57,0.00
2012,08,03,03,58,0.00
2012,08,03,03,59,0.00
2012,08,03,04,00,0.00
2012,08,03,04,01,0.00
2012,08,03,04,02,0.00
2012,08,03,04,03,0.00
2012,08,03,04,04,0.00
2012,08,03,04,05,0.00
2012,08,03,04,06,0.00
2012,08,03,04,07,0.00
2012,08,03,04,08,0.00
2012,08,03,04,09,0.00
2012,08,03,04,10,0.00
2012,08,03,04,11,0.00
2012,08,03,04,12,0.00
2012,08,03,04,13,0.00
2012,08,03,04,14,0.00
2012,08,03,04,15,0.00
2012,08,03,04,16,0.00
2012,08,03,04,17,0.00
2012,08,03,04,18,0.00
2012,08,03,04,19,0.00
2012,08,03,04,20,0.00
2012,08,03,04,21,0.00
2012,08,03,04,22,0.00
2012,08,03,04,23,0.00
2012,08,03,04,24,0.00
2012,08,03,04,25,0.00
2012,08,03,04,26,0.00
2012,08,03,04,27,0.00
2012,08,03,04,28,0.00
2012,08,03,04,29,0.00
2012,08,03,04,30,0.00
2012,08,03,04,31,0.00
2012,08,03,04,32,0.00
2012,08,03,04,33,0.00
2012,08,03,04,34,0.00
2012,08,03,04,35,0.00
2012,08,03,04,36,0.00
2012,08,03,04,37,0.00
2012,08,03,04,38,0.00
2012,08,03,04,39,0.00
2012,08,03,04,40,0.00
2012,08,03,04,41,0.00
2012,08,03,04,42,0.00
2012,08,03,04,43,0.00
2012,08,03,04,44,0.00
2012,08,03,04,45,0.00
2012,08,03,04,46,0.00
2012,08,03,04,47,0.00
2012,08,03,04,48,0.00
2012,08,03,04,49,0.00
2012,08,03,04,50,0.00
2012,08,03,04,51,0.00
2012,08,03,04,52,0.00
2012,08,03,04,53,0.00
2012,08,03,04,54,0.00
2012,08,03,04,55,0.00
2012,08,03,04,56,0.00
2012,08,03,04,57,0.00
2012,08,03,04,58,0.00
2012,08,03,04,59,0.00
2012,08,03,05,00,0.00
2012,08,03,05,01,0.00
2012,08,03,05,02,0.00
2012,08,03,05,03,0.00
2012,08,03,05,04,0.00
2012,08,03,05,05,0.00
2012,08,03,05,06,0.00
2012,08,03,05,07,0.00
2012,08,03,05,08,0.00
2012,08,03,05,09,0.00
2012,08,03,05,10,0.00
2012,08,03,05,11,0.00
2012,08,03,05,12,0.00
2012,08,03,05,13,0.00
2012,08,03,05,14,0.00
2012,08,03,05,15,0.00
2012,08,03,05,16,0.00
2012,08,03,05,17,0.00
2012,08,03,05,18,0.00
2012,08,03,05,19,0.00
2012,08,03,05,20,0.00
2012,08,03,05,21,0.00
2012,08,03,05,22,0.00
2012,08,03,05,23,0.00
2012,08,03,05,24,0.00
2012,08,03,05,25,0.00
2012,08,03,05,26,0.00
2012,08,03,05,27,0.00
2012,08,03,05,28,0.00
2012,08,03,05,29,0.00
2012,08,03,05,30,0.00
2012,08,03,05,31,0.00
2012,08,03,05,32,0.00
2012,08,03,05,33,0.00
2012,08,03,05,34,0.00
2012,08,03,05,35,0.00
2012,08,03,05,36,0.00
2012,08,03,05,37,0.00
2012,08,03,05,38,0.00
2012,08,03,05,39,0.00
2012,08,03,05,40,0.00
2012,08,03,05,41,0.00
2012,08,03,05,42,0.00
2012,08,03,05,43,0.00
2012,08,03,05,44,0.00
2012,08,03,05,45,0.00
2012,08,03,05,46,0.00
2012,08,03,05,47,0.00
2012,08,03,05,48,0.00
2012,08,03,05,49,0.00
2012,08,03,05,50,0.00
2012,08,03,05,51,0.00
2012,08,03,05,52,4.50
2012,08,03,05,53,5.00
2012,08,03,05,54,5.00
2012,08,03,05,55,5.00
2012,08,03,05,56,5.00
2012,08,03,05,57,5.00
2012,08,03,05,58,6.30
2012,08,03,05,59,7.00
2012,08,03,06,00,7.00
2012,08,03,06,01,7.00
2012,08,03,06,02,7.40
2012,08,03,06,03,9.00
2012,08,03,06,04,9.00
2012,08,03,06,05,9.00
2012,08,03,06,06,10.20
2012,08,03,06,07,11.00
2012,08,03,06,08,11.00
2012,08,03,06,09,11.00
2012,08,03,06,10,11.10
2012,08,03,06,11,12.00
2012,08,03,06,12,12.00
2012,08,03,06,13,12.00
2012,08,03,06,14,12.00
2012,08,03,06,15,13.30
2012,08,03,06,16,14.00
2012,08,03,06,17,14.00
2012,08,03,06,18,14.00
2012,08,03,06,19,14.30
2012,08,03,06,20,16.00
2012,08,03,06,21,16.00
2012,08,03,06,22,16.00
2012,08,03,06,23,17.10
2012,08,03,06,24,18.00
2012,08,03,06,25,18.00
2012,08,03,06,26,18.00
2012,08,03,06,27,19.00
2012,08,03,06,28,19.00
2012,08,03,06,29,19.00
2012,08,03,06,30,19.00
2012,08,03,06,31,19.00
2012,08,03,06,32,20.20
2012,08,03,06,33,21.00
2012,08,03,06,34,21.00
2012,08,03,06,35,21.00
2012,08,03,06,36,21.30
2012,08,03,06,37,23.00
2012,08,03,06,38,23.00
2012,08,03,06,39,23.00
2012,08,03,06,40,23.00
2012,08,03,06,41,23.00
2012,08,03,06,42,24.50
2012,08,03,06,43,25.00
2012,08,03,06,44,25.00
2012,08,03,06,45,25.00
2012,08,03,06,46,25.00
2012,08,03,06,47,25.40
2012,08,03,06,48,26.00
2012,08,03,06,49,26.00
2012,08,03,06,50,26.00
2012,08,03,06,51,26.00
2012,08,03,06,52,26.00
2012,08,03,06,53,26.20
2012,08,03,06,54,28.00
2012,08,03,06,55,28.00
2012,08,03,06,56,28.00
2012,08,03,06,57,28.00
2012,08,03,06,58,28.00
2012,08,03,06,59,29.50
2012,08,03,07,00,30.00
2012,08,03,07,01,32.20
2012,08,03,07,02,37.00
2012,08,03,07,03,36.50
2012,08,03,07,04,40.20
2012,08,03,07,05,65.70
2012,08,03,07,06,100.30
2012,08,03,07,07,145.00
2012,08,03,07,08,205.20
2012,08,03,07,09,233.00
2012,08,03,07,10,243.00
2012,08,03,07,11,246.40
2012,08,03,07,12,248.90
2012,08,03,07,13,252.60
2012,08,03,07,14,256.00
2012,08,03,07,15,258.80
2012,08,03,07,16,262.80
2012,08,03,07,17,264.90
2012,08,03,07,18,268.80
2012,08,03,07,19,272.30
2012,08,03,07,20,275.00
2012,08,03,07,21,279.00
2012,08,03,07,22,281.90
2012,08,03,07,23,285.30
2012,08,03,07,24,289.00
2012,08,03,07,25,291.40
2012,08,03,07,26,294.60
2012,08,03,07,27,299.10
2012,08,03,07,28,302.60
2012,08,03,07,29,306.50
2012,08,03,07,30,308.40
2012,08,03,07,31,311.00
2012,08,03,07,32,314.70
2012,08,03,07,33,318.80
2012,08,03,07,34,322.40
2012,08,03,07,35,324.90
2012,08,03,07,36,329.00
2012,08,03,07,37,330.80
2012,08,03,07,38,335.20
2012,08,03,07,39,338.40
2012,08,03,07,40,341.20
2012,08,03,07,41,345.00
2012,08,03,07,42,347.40
2012,08,03,07,43,351.40
2012,08,03,07,44,355.00
2012,08,03,07,45,357.40
2012,08,03,07,46,361.00
2012,08,03,07,47,364.70
2012,08,03,07,48,367.40
2012,08,03,07,49,371.30
2012,08,03,07,50,373.70
2012,08,03,07,51,377.20
2012,08,03,07,52,380.70
2012,08,03,07,53,385.10
2012,08,03,07,54,388.80
2012,08,03,07,55,393.30
2012,08,03,07,56,396.40
2012,08,03,07,57,399.00
2012,08,03,07,58,402.70
2012,08,03,07,59,406.80
2012,08,03,08,00,409.60
2012,08,03,08,01,411.10
2012,08,03,08,02,415.40
2012,08,03,08,03,418.80
2012,08,03,08,04,422.60
2012,08,03,08,05,425.30
2012,08,03,08,06,429.30
2012,08,03,08,07,431.60
2012,08,03,08,08,435.00
2012,08,03,08,09,438.70
2012,08,03,08,10,443.20
2012,08,03,08,11,445.60
2012,08,03,08,12,449.20
2012,08,03,08,13,452.80
2012,08,03,08,14,455.50
2012,08,03,08,15,459.50
2012,08,03,08,16,463.00
2012,08,03,08,17,465.60
2012,08,03,08,18,468.70
2012,08,03,08,19,471.40
2012,08,03,08,20,475.20
2012,08,03,08,21,477.40
2012,08,03,08,22,481.30
2012,08,03,08,23,484.90
2012,08,03,08,24,488.20
2012,08,03,08,25,489.70
2012,08,03,08,26,493.40
2012,08,03,08,27,497.00
2012,08,03,08,28,499.60
2012,08,03,08,29,503.90
2012,08,03,08,30,508.10
2012,08,03,08,31,512.00
2012,08,03,08,32,513.70
2012,08,03,08,33,516.40
2012,08,03,08,34,519.40
2012,08,03,08,35,523.50
2012,08,03,08,36,526.10
2012,08,03,08,37,527.50
2012,08,03,08,38,529.70
2012,08,03,08,39,533.00
2012,08,03,08,40,536.00
2012,08,03,08,41,538.40
2012,08,03,08,42,542.10
2012,08,03,08,43,544.70
2012,08,03,08,44,547.80
2012,08,03,08,45,550.60
2012,08,03,08,46,554.60
2012,08,03,08,47,557.70
2012,08,03,08,48,559.90
2012,08,03,08,49,562.60
2012,08,03,08,50,564.00
2012,08,03,08,51,568.30
2012,08,03,08,52,570.90
2012,08,03,08,53,573.30
2012,08,03,08,54,577.20
2012,08,03,08,55,579.20
2012,08,03,08,56,582.80
2012,08,03,08,57,586.40
2012,08,03,08,58,589.00
2012,08,03,08,59,590.40
2012,08,03,09,00,593.40
2012,08,03,09,01,597.80
2012,08,03,09,02,598.30
2012,08,03,09,03,601.40
2012,08,03,09,04,604.00
2012,08,03,09,05,607.80
2012,08,03,09,06,610.00
2012,08,03,09,07,611.90
2012,08,03,09,08,614.40
2012,08,03,09,09,618.40
2012,08,03,09,10,620.90
2012,08,03,09,11,622.30
2012,08,03,09,12,625.10
2012,08,03,09,13,629.10
2012,08,03,09,14,632.00
2012,08,03,09,15,634.20
2012,08,03,09,16,637.10
2012,08,03,09,17,638.00
2012,08,03,09,18,641.60
2012,08,03,09,19,643.40
2012,08,03,09,20,647.00
2012,08,03,09,21,647.90
2012,08,03,09,22,651.70
2012,08,03,09,23,655.00
2012,08,03,09,24,656.60
2012,08,03,09,25,659.90
2012,08,03,09,26,663.40
2012,08,03,09,27,665.90
2012,08,03,09,28,666.20
2012,08,03,09,29,668.60
2012,08,03,09,30,671.70
2012,08,03,09,31,674.80
2012,08,03,09,32,678.10
2012,08,03,09,33,682.30
2012,08,03,09,34,682.50
2012,08,03,09,35,685.40
2012,08,03,09,36,687.00
2012,08,03,09,37,689.40
2012,08,03,09,38,691.90
2012,08,03,09,39,694.00
2012,08,03,09,40,695.00
2012,08,03,09,41,698.40
2012,08,03,09,42,700.70
2012,08,03,09,43,702.60
2012,08,03,09,44,704.80
2012,08,03,09,45,708.00
2012,08,03,09,46,709.00
2012,08,03,09,47,712.00
2012,08,03,09,48,713.20
2012,08,03,09,49,717.10
2012,08,03,09,50,719.00
2012,08,03,09,51,721.20
2012,08,03,09,52,721.20
2012,08,03,09,53,724.00
2012,08,03,09,54,726.50
2012,08,03,09,55,729.60
2012,08,03,09,56,732.50
2012,08,03,09,57,734.10
2012,08,03,09,58,735.20
2012,08,03,09,59,737.70
2012,08,03,10,00,741.20
2012,08,03,10,01,743.80
2012,08,03,10,02,744.30
2012,08,03,10,03,747.40
2012,08,03,10,04,749.60
2012,08,03,10,05,751.50
2012,08,03,10,06,753.10
2012,08,03,10,07,755.30
2012,08,03,10,08,759.80
2012,08,03,10,09,758.50
2012,08,03,10,10,759.10
2012,08,03,10,11,763.30
2012,08,03,10,12,765.20
2012,08,03,10,13,766.70
2012,08,03,10,14,769.90
2012,08,03,10,15,769.80
2012,08,03,10,16,770.60
2012,08,03,10,17,772.00
2012,08,03,10,18,776.20
2012,08,03,10,19,778.90
2012,08,03,10,20,710.40
2012,08,03,10,21,436.00
2012,08,03,10,22,574.40
2012,08,03,10,23,783.00
2012,08,03,10,24,784.00
2012,08,03,10,25,786.70
2012,08,03,10,26,788.80
2012,08,03,10,27,790.80
2012,08,03,10,28,791.20
2012,08,03,10,29,793.70
2012,08,03,10,30,796.00
2012,08,03,10,31,797.70
2012,08,03,10,32,798.90
2012,08,03,10,33,800.60
2012,08,03,10,34,802.80
2012,08,03,10,35,804.70
2012,08,03,10,36,806.80
2012,08,03,10,37,805.40
2012,08,03,10,38,807.60
2012,08,03,10,39,809.30
2012,08,03,10,40,810.90
2012,08,03,10,41,813.10
2012,08,03,10,42,814.00
2012,08,03,10,43,814.00
2012,08,03,10,44,816.60
2012,08,03,10,45,816.10
2012,08,03,10,46,817.80
2012,08,03,10,47,821.60
2012,08,03,10,48,823.00
2012,08,03,10,49,823.00
2012,08,03,10,50,825.90
2012,08,03,10,51,826.60
2012,08,03,10,52,827.70
2012,08,03,10,53,828.00
2012,08,03,10,54,828.50
2012,08,03,10,55,832.00
2012,08,03,10,56,835.00
2012,08,03,10,57,835.00
2012,08,03,10,58,836.50
2012,08,03,10,59,838.00
2012,08,03,11,00,839.50
2012,08,03,11,01,840.00
2012,08,03,11,02,840.40
2012,08,03,11,03,843.60
2012,08,03,11,04,842.60
2012,08,03,11,05,844.70
2012,08,03,11,06,846.00
2012,08,03,11,07,847.70
2012,08,03,11,08,847.60
2012,08,03,11,09,852.50
2012,08,03,11,10,854.00
2012,08,03,11,11,853.10
2012,08,03,11,12,854.80
2012,08,03,11,13,857.30
2012,08,03,11,14,856.00
2012,08,03,11,15,858.20
2012,08,03,11,16,860.00
2012,08,03,11,17,860.00
2012,08,03,11,18,862.50
2012,08,03,11,19,863.10
2012,08,03,11,20,864.70
2012,08,03,11,21,863.50
2012,08,03,11,22,865.70
2012,08,03,11,23,867.40
2012,08,03,11,24,868.00
2012,08,03,11,25,869.30
2012,08,03,11,26,870.00
2012,08,03,11,27,868.20
2012,08,03,11,28,870.20
2012,08,03,11,29,872.40
2012,08,03,11,30,873.30
2012,08,03,11,31,872.80
2012,08,03,11,32,875.50
2012,08,03,11,33,878.20
2012,08,03,11,34,877.60
2012,08,03,11,35,878.70
2012,08,03,11,36,879.00
2012,08,03,11,37,879.50
2012,08,03,11,38,881.80
2012,08,03,11,39,881.00
2012,08,03,11,40,882.30
2012,08,03,11,41,882.90
2012,08,03,11,42,882.00
2012,08,03,11,43,882.00
2012,08,03,11,44,885.40
2012,08,03,11,45,886.10
2012,08,03,11,46,888.00
2012,08,03,11,47,887.50
2012,08,03,11,48,886.80
2012,08,03,11,49,887.00
2012,08,03,11,50,887.70
2012,08,03,11,51,889.00
2012,08,03,11,52,889.00
2012,08,03,11,53,890.90
2012,08,03,11,54,891.00
2012,08,03,11,55,891.00
2012,08,03,11,56,891.00
2012,08,03,11,57,891.80
2012,08,03,11,58,892.00
2012,08,03,11,59,892.30
2012,08,03,12,00,893.00
2012,08,03,12,01,894.70
2012,08,03,12,02,895.90
2012,08,03,12,03,895.00
2012,08,03,12,04,895.00
2012,08,03,12,05,895.30
2012,08,03,12,06,896.90
2012,08,03,12,07,896.90
2012,08,03,12,08,895.30
2012,08,03,12,09,895.00
2012,08,03,12,10,895.90
2012,08,03,12,11,896.00
2012,08,03,12,12,897.10
2012,08,03,12,13,900.10
2012,08,03,12,14,896.80
2012,08,03,12,15,899.00
2012,08,03,12,16,898.80
2012,08,03,12,17,898.00
2012,08,03,12,18,898.00
2012,08,03,12,19,898.00
2012,08,03,12,20,898.00
2012,08,03,12,21,898.00
2012,08,03,12,22,897.40
2012,08,03,12,23,896.90
2012,08,03,12,24,898.00
2012,08,03,12,25,896.70
2012,08,03,12,26,899.20
2012,08,03,12,27,900.00
2012,08,03,12,28,896.40
2012,08,03,12,29,898.00
2012,08,03,12,30,898.00
2012,08,03,12,31,898.80
2012,08,03,12,32,899.10
2012,08,03,12,33,899.10
2012,08,03,12,34,898.60
2012,08,03,12,35,898.00
2012,08,03,12,36,901.60
2012,08,03,12,37,898.00
2012,08,03,12,38,898.50
2012,08,03,12,39,900.00
2012,08,03,12,40,899.10
2012,08,03,12,41,898.00
2012,08,03,12,42,899.30
2012,08,03,12,43,898.50
2012,08,03,12,44,899.60
2012,08,03,12,45,896.20
2012,08,03,12,46,895.60
2012,08,03,12,47,898.60
2012,08,03,12,48,899.30
2012,08,03,12,49,898.00
2012,08,03,12,50,898.00
2012,08,03,12,51,899.30
2012,08,03,12,52,898.50
2012,08,03,12,53,898.00
2012,08,03,12,54,894.80
2012,08,03,12,55,893.60
2012,08,03,12,56,896.60
2012,08,03,12,57,896.90
2012,08,03,12,58,895.50
2012,08,03,12,59,894.10
2012,08,03,13,00,894.40
2012,08,03,13,01,893.30
2012,08,03,13,02,894.90
2012,08,03,13,03,892.70
2012,08,03,13,04,891.50
2012,08,03,13,05,892.30
2012,08,03,13,06,891.00
2012,08,03,13,07,889.90
2012,08,03,13,08,889.00
2012,08,03,13,09,890.50
2012,08,03,13,10,889.30
2012,08,03,13,11,889.00
2012,08,03,13,12,888.40
2012,08,03,13,13,886.00
2012,08,03,13,14,886.80
2012,08,03,13,15,887.00
2012,08,03,13,16,886.00
2012,08,03,13,17,884.60
2012,08,03,13,18,884.00
2012,08,03,13,19,884.00
2012,08,03,13,20,883.70
2012,08,03,13,21,881.00
2012,08,03,13,22,881.00
2012,08,03,13,23,881.00
2012,08,03,13,24,880.00
2012,08,03,13,25,879.00
2012,08,03,13,26,877.60
2012,08,03,13,27,877.00
2012,08,03,13,28,875.20
2012,08,03,13,29,875.00
2012,08,03,13,30,874.20
2012,08,03,13,31,872.00
2012,08,03,13,32,871.00
2012,08,03,13,33,872.30
2012,08,03,13,34,870.00
2012,08,03,13,35,869.60
2012,08,03,13,36,868.20
2012,08,03,13,37,867.90
2012,08,03,13,38,867.00
2012,08,03,13,39,867.00
2012,08,03,13,40,866.20
2012,08,03,13,41,865.00
2012,08,03,13,42,863.90
2012,08,03,13,43,863.00
2012,08,03,13,44,860.50
2012,08,03,13,45,858.20
2012,08,03,13,46,858.00
2012,08,03,13,47,858.00
2012,08,03,13,48,857.30
2012,08,03,13,49,855.00
2012,08,03,13,50,853.50
2012,08,03,13,51,853.00
2012,08,03,13,52,853.00
2012,08,03,13,53,849.60
2012,08,03,13,54,846.70
2012,08,03,13,55,840.90
2012,08,03,13,56,846.00
2012,08,03,13,57,846.00
2012,08,03,13,58,845.00
2012,08,03,13,59,842.80
2012,08,03,14,00,840.70
2012,08,03,14,01,840.00
2012,08,03,14,02,838.20
2012,08,03,14,03,837.00
2012,08,03,14,04,836.60
2012,08,03,14,05,835.00
2012,08,03,14,06,834.20
2012,08,03,14,07,833.00
2012,08,03,14,08,831.70
2012,08,03,14,09,828.90
2012,08,03,14,10,828.00
2012,08,03,14,11,826.10
2012,08,03,14,12,825.70
2012,08,03,14,13,823.70
2012,08,03,14,14,823.00
2012,08,03,14,15,822.10
2012,08,03,14,16,818.60
2012,08,03,14,17,816.30
2012,08,03,14,18,816.00
2012,08,03,14,19,816.00
2012,08,03,14,20,812.00
2012,08,03,14,21,811.60
2012,08,03,14,22,809.00
2012,08,03,14,23,806.10
2012,08,03,14,24,805.00
2012,08,03,14,25,803.80
2012,08,03,14,26,800.90
2012,08,03,14,27,801.60
2012,08,03,14,28,800.00
2012,08,03,14,29,796.00
2012,08,03,14,30,795.80
2012,08,03,14,31,794.30
2012,08,03,14,32,793.00
2012,08,03,14,33,793.00
2012,08,03,14,34,790.40
2012,08,03,14,35,786.70
2012,08,03,14,36,786.00
2012,08,03,14,37,784.00
2012,08,03,14,38,781.70
2012,08,03,14,39,780.00
2012,08,03,14,40,780.00
2012,08,03,14,41,778.60
2012,08,03,14,42,774.60
2012,08,03,14,43,773.00
2012,08,03,14,44,773.00
2012,08,03,14,45,768.40
2012,08,03,14,46,765.90
2012,08,03,14,47,765.00
2012,08,03,14,48,763.70
2012,08,03,14,49,761.00
2012,08,03,14,50,760.00
2012,08,03,14,51,758.40
2012,08,03,14,52,756.60
2012,08,03,14,53,752.80
2012,08,03,14,54,751.90
2012,08,03,14,55,748.70
2012,08,03,14,56,747.00
2012,08,03,14,57,746.00
2012,08,03,14,58,743.00
2012,08,03,14,59,742.00
2012,08,03,15,00,742.00
2012,08,03,15,01,738.10
2012,08,03,15,02,735.30
2012,08,03,15,03,732.60
2012,08,03,15,04,729.50
2012,08,03,15,05,728.50
2012,08,03,15,06,725.60
2012,08,03,15,07,725.80
2012,08,03,15,08,722.30
2012,08,03,15,09,719.60
2012,08,03,15,10,717.40
2012,08,03,15,11,716.90
2012,08,03,15,12,714.70
2012,08,03,15,13,711.50
2012,08,03,15,14,710.00
2012,08,03,15,15,708.70
2012,08,03,15,16,705.90
2012,08,03,15,17,703.60
2012,08,03,15,18,700.60
2012,08,03,15,19,698.20
2012,08,03,15,20,696.10
2012,08,03,15,21,695.10
2012,08,03,15,22,689.90
2012,08,03,15,23,687.00
2012,08,03,15,24,686.50
2012,08,03,15,25,683.60
2012,08,03,15,26,680.70
2012,08,03,15,27,679.20
2012,08,03,15,28,678.70
2012,08,03,15,29,672.80
2012,08,03,15,30,670.80
2012,08,03,15,31,669.30
2012,08,03,15,32,667.10
2012,08,03,15,33,664.40
2012,08,03,15,34,661.80
2012,08,03,15,35,661.00
2012,08,03,15,36,657.60
2012,08,03,15,37,655.90
2012,08,03,15,38,651.60
2012,08,03,15,39,649.20
2012,08,03,15,40,647.00
2012,08,03,15,41,646.10
2012,08,03,15,42,643.20
2012,08,03,15,43,640.70
2012,08,03,15,44,638.50
2012,08,03,15,45,635.30
2012,08,03,15,46,632.60
2012,08,03,15,47,629.00
2012,08,03,15,48,629.00
2012,08,03,15,49,627.00
2012,08,03,15,50,622.60
2012,08,03,15,51,619.80
2012,08,03,15,52,619.00
2012,08,03,15,53,614.10
2012,08,03,15,54,612.90
2012,08,03,15,55,609.60
2012,08,03,15,56,606.00
2012,08,03,15,57,605.00
2012,08,03,15,58,602.10
2012,08,03,15,59,599.90
2012,08,03,16,00,597.00
2012,08,03,16,01,594.50
2012,08,03,16,02,592.20
2012,08,03,16,03,589.00
2012,08,03,16,04,587.00
2012,08,03,16,05,585.80
2012,08,03,16,06,581.20
2012,08,03,16,07,578.50
2012,08,03,16,08,575.70
2012,08,03,16,09,573.60
2012,08,03,16,10,570.50
2012,08,03,16,11,570.00
2012,08,03,16,12,564.00
2012,08,03,16,13,563.40
2012,08,03,16,14,560.30
2012,08,03,16,15,557.20
2012,08,03,16,16,554.50
2012,08,03,16,17,551.50
2012,08,03,16,18,548.50
2012,08,03,16,19,547.10
2012,08,03,16,20,544.80
2012,08,03,16,21,542.50
2012,08,03,16,22,539.00
2012,08,03,16,23,535.30
2012,08,03,16,24,533.50
2012,08,03,16,25,530.90
2012,08,03,16,26,527.70
2012,08,03,16,27,526.20
2012,08,03,16,28,519.70
2012,08,03,16,29,519.00
2012,08,03,16,30,518.20
2012,08,03,16,31,514.00
2012,08,03,16,32,510.30
2012,08,03,16,33,508.00
2012,08,03,16,34,508.00
2012,08,03,16,35,504.50
2012,08,03,16,36,499.60
2012,08,03,16,37,496.20
2012,08,03,16,38,493.70
2012,08,03,16,39,491.60
2012,08,03,16,40,489.70
2012,08,03,16,41,486.20
2012,08,03,16,42,482.40
2012,08,03,16,43,480.60
2012,08,03,16,44,477.00
2012,08,03,16,45,471.80
2012,08,03,16,46,470.80
2012,08,03,16,47,468.80
2012,08,03,16,48,467.00
2012,08,03,16,49,463.30
2012,08,03,16,50,460.60
2012,08,03,16,51,457.80
2012,08,03,16,52,455.60
2012,08,03,16,53,452.50
2012,08,03,16,54,448.40
2012,08,03,16,55,445.00
2012,08,03,16,56,444.00
2012,08,03,16,57,441.00
2012,08,03,16,58,439.60
2012,08,03,16,59,435.80
2012,08,03,17,00,432.80
2012,08,03,17,01,429.70
2012,08,03,17,02,424.80
2012,08,03,17,03,422.00
2012,08,03,17,04,419.60
2012,08,03,17,05,416.40
2012,08,03,17,06,413.40
2012,08,03,17,07,410.50
2012,08,03,17,08,408.90